TimeEDT,TemperatureF,Dew PointF,Humidity,Sea Level PressureIn,VisibilityMPH,Wind Direction,Wind SpeedMPH,Gust SpeedMPH,PrecipitationIn,Events,Conditions,WindDirDegrees,DateUTC
12:56 AM,32.0,28.0,85,30.66,10.0,Calm,Calm,-,N/A,,Clear,0,2013-04-22 04:56:00
1:56 AM,30.0,27.0,88,30.65,10.0,Calm,Calm,-,N/A,,Clear,0,2013-04-22 05:56:00
2:56 AM,30.9,28.0,89,30.66,10.0,Calm,Calm,-,N/A,,Clear,0,2013-04-22 06:56:00
3:56 AM,30.0,27.0,88,30.66,10.0,Calm,Calm,-,N/A,,Clear,0,2013-04-22 07:56:00
4:56 AM,32.0,28.0,85,30.67,10.0,Calm,Calm,-,N/A,,Clear,0,2013-04-22 08:56:00
5:56 AM,34.0,30.0,85,30.67,10.0,NNE,4.6,-,N/A,,Clear,30,2013-04-22 09:56:00
6:56 AM,41.0,34.0,76,30.68,10.0,ENE,5.8,-,N/A,,Clear,60,2013-04-22 10:56:00
7:56 AM,45.0,33.1,63,30.69,10.0,East,6.9,-,N/A,,Clear,80,2013-04-22 11:56:00
8:56 AM,48.0,26.1,42,30.67,10.0,East,16.1,24.2,N/A,,Clear,80,2013-04-22 12:56:00
9:56 AM,48.9,28.0,44,30.69,10.0,East,12.7,24.2,N/A,,Clear,80,2013-04-22 13:56:00
10:56 AM,48.9,26.1,41,30.70,10.0,ENE,13.8,21.9,N/A,,Clear,70,2013-04-22 14:56:00
11:56 AM,50.0,28.0,43,30.67,10.0,East,15.0,20.7,N/A,,Clear,80,2013-04-22 15:56:00
12:56 PM,50.0,34.0,54,30.67,10.0,East,15.0,21.9,N/A,,Scattered Clouds,90,2013-04-22 16:56:00
1:56 PM,48.0,34.0,58,30.67,10.0,East,9.2,21.9,N/A,,Mostly Cloudy,100,2013-04-22 17:56:00
2:56 PM,46.9,34.0,61,30.63,10.0,East,13.8,25.3,N/A,,Overcast,100,2013-04-22 18:56:00
3:56 PM,46.9,35.1,63,30.63,10.0,East,6.9,-,N/A,,Overcast,90,2013-04-22 19:56:00
4:50 PM,82.4,57.2,42,29.95,10.0,SSE,15.0,20.7,N/A,,Partly Cloudy,150,2013-04-22 20:50:00
4:56 PM,45.0,32.0,60,30.63,10.0,ENE,8.1,-,N/A,,Overcast,70,2013-04-22 20:56:00
5:03 PM,44.6,33.8,66,30.62,10.0,ENE,10.4,19.6,N/A,,Mostly Cloudy,70,2013-04-22 21:03:00
5:25 PM,44.6,33.8,66,30.62,10.0,ENE,12.7,19.6,N/A,,Mostly Cloudy,70,2013-04-22 21:25:00
5:56 PM,44.1,32.0,63,30.61,10.0,East,12.7,19.6,N/A,,Scattered Clouds,80,2013-04-22 21:56:00
6:56 PM,42.1,30.9,65,30.60,10.0,ENE,9.2,-,N/A,,Partly Cloudy,70,2013-04-22 22:56:00
7:48 PM,42.8,32.0,66,30.60,10.0,ENE,6.9,-,N/A,,Mostly Cloudy,70,2013-04-22 23:48:00
7:56 PM,42.1,32.0,67,30.60,10.0,ENE,8.1,-,N/A,,Mostly Cloudy,70,2013-04-22 23:56:00
8:11 PM,41.0,30.2,65,30.60,10.0,East,9.2,-,N/A,,Scattered Clouds,90,2013-04-23 00:11:00
8:35 PM,41.0,32.0,70,30.60,10.0,ENE,6.9,-,N/A,,Mostly Cloudy,70,2013-04-23 00:35:00
8:56 PM,41.0,32.0,70,30.60,10.0,East,9.2,17.3,N/A,,Mostly Cloudy,80,2013-04-23 00:56:00
9:22 PM,41.0,32.0,70,30.59,10.0,East,6.9,-,N/A,,Scattered Clouds,80,2013-04-23 01:22:00
9:56 PM,41.0,32.0,70,30.58,10.0,ENE,9.2,-,N/A,,Partly Cloudy,70,2013-04-23 01:56:00
10:56 PM,41.0,32.0,70,30.56,10.0,East,6.9,-,N/A,,Scattered Clouds,80,2013-04-23 02:56:00
11:12 PM,41.0,33.8,76,30.55,10.0,ENE,8.1,16.1,N/A,,Mostly Cloudy,60,2013-04-23 03:12:00
11:56 PM,42.1,34.0,73,30.55,10.0,East,5.8,-,N/A,,Overcast,80,2013-04-23 03:56:00